1998-067SX

Last updated on Tue Apr 12 2022 00:02:05 GMT+0000 (Coordinated Universal Time)

1 49278U 98067SX 22101.02027965 .07286628 12027-4 22413-2 0 9996 2 49278 51.6147 292.1645 0012469 278.8891 81.0718 16.25716761 28300

Satellite not in orbit